Weather History for KINJ - October, 2012

Change the Weather History Date:

Friday, October 12, 2012

  Actual Average (KACT) Record (KACT)
Temperature  
Mean Temperature 78 °F 70 °F  
Max Temperature 86 °F 81 °F 95 °F (1991)
Min Temperature 69 °F 58 °F 37 °F (1946)
Degree Days  
Heating Degree Days 0 1  
Month to date heating degree days 12  
Since 1 July heating degree days 18  
Cooling Degree Days 12 6  
Month to date cooling degree days 84  
Year to date cooling degree days 2678  
Growing Degree Days 28 (Base 50)    
Moisture  
Dew Point 66 °F    
Average Humidity 72    
Maximum Humidity 94    
Minimum Humidity 45    
Precipitation  
Precipitation 0.00 in 0.14 in 3.25 in (1943)
Month to date precipitation 1.46  
Year to date precipitation 26.68  
Snow  
Snow 0.00 in 0.00 in 0.00 in ()
Month to date snowfall 0.0  
Since 1 July snowfall 0.0  
Since 1 September snowfall 0.0  
Snow Depth -    
Sea Level Pressure  
Sea Level Pressure 30.13 in    
Wind  
Wind Speed 9 mph (SSE)    
Max Wind Speed 15 mph    
Max Gust Speed 20 mph    
Visibility 10 miles    
Events      
T = Trace of Precipitation, MM = Missing Value Source: NWS Daily Summary

Daily Weather History Graph

Daily Weather History Graph

Search for Another Location

Airport or City:

Trip Planner

Search our weather history database for the weather conditions in past years. The results will help you decide how hot, cold, wet, or windy it might be!

Date:

Astronomy

Oct. 12, 2012 Rise Set
Actual Time 7:30 AM CDT 6:58 PM CDT
Civil Twilight 7:05 AM CDT 7:23 PM CDT
Nautical Twilight 6:37 AM CDT 7:51 PM CDT
Astronomical Twilight 6:08 AM CDT 8:20 PM CDT
Moon 4:24 AM CDT (10/12) 5:01 PM CDT (10/12)
Length of Visible Light 12h 17m
Length of Day
11h 28m
Waning Crescent, 10% of the Moon is Illuminated
Oct 12
Waning Crescent
Oct 15
New
Oct 21
First Quarter
Oct 29
Full
Nov 6
Last Quarter

Hourly Weather History & Observations

Time (CDT) Temp. Heat Index Dew Point Humidity Pressure Visibility Wind Dir Wind Speed Gust Speed Precip Events Conditions
12:15 AM 71.6 °F - 68.0 °F 88% 30.12 in 10.0 mi SSE 6.9 mph - N/A   Clear
12:35 AM 71.6 °F - 68.0 °F 88% 30.13 in 10.0 mi Calm Calm - N/A   Scattered Clouds
12:55 AM 71.6 °F - 68.0 °F 88% 30.12 in 10.0 mi SSE 9.2 mph - N/A   Scattered Clouds
1:15 AM 71.6 °F - 68.0 °F 88% 30.12 in 10.0 mi SSE 10.4 mph - N/A   Scattered Clouds
1:35 AM 71.6 °F - 68.0 °F 88% 30.13 in 10.0 mi SSE 9.2 mph - N/A   Clear
1:55 AM 71.6 °F - 68.0 °F 88% 30.13 in 10.0 mi SSE 9.2 mph - N/A   Scattered Clouds
2:15 AM 71.6 °F - 68.0 °F 88% 30.13 in 10.0 mi SSE 9.2 mph - N/A   Mostly Cloudy
2:35 AM 71.6 °F - 68.0 °F 88% 30.13 in 10.0 mi SSE 8.1 mph - N/A   Overcast
2:55 AM 71.6 °F - 68.0 °F 88% 30.13 in 10.0 mi SSE 10.4 mph - N/A   Overcast
3:15 AM 71.6 °F - 68.0 °F 88% 30.13 in 10.0 mi SSE 9.2 mph - N/A   Overcast
3:35 AM 71.6 °F - 68.0 °F 88% 30.13 in 10.0 mi SSE 10.4 mph - N/A   Overcast
3:55 AM 71.6 °F - 68.0 °F 88% 30.13 in 7.0 mi SSE 11.5 mph - N/A   Overcast
4:15 AM 71.6 °F - 68.0 °F 88% 30.13 in 7.0 mi SE 11.5 mph - N/A   Overcast
4:35 AM 71.6 °F - 68.0 °F 88% 30.13 in 10.0 mi SSE 10.4 mph - N/A   Mostly Cloudy
4:55 AM 71.6 °F - 68.0 °F 88% 30.13 in 10.0 mi SSE 11.5 mph - N/A   Mostly Cloudy
5:15 AM 71.6 °F - 68.0 °F 88% 30.13 in 10.0 mi SSE 9.2 mph - N/A   Scattered Clouds
5:35 AM 71.6 °F - 66.2 °F 83% 30.14 in 10.0 mi SE 6.9 mph - N/A   Clear
5:55 AM 71.6 °F - 68.0 °F 88% 30.14 in 7.0 mi SSE 8.1 mph - N/A   Mostly Cloudy
6:15 AM 69.8 °F - 68.0 °F 94% 30.15 in 7.0 mi SSE 9.2 mph - N/A   Scattered Clouds
6:35 AM 69.8 °F - 68.0 °F 94% 30.15 in 7.0 mi SSE 10.4 mph - N/A   Mostly Cloudy
6:55 AM 71.6 °F - 68.0 °F 88% 30.15 in 10.0 mi SSE 9.2 mph - N/A   Overcast
7:35 AM 71.6 °F - 68.0 °F 88% 30.16 in 10.0 mi SSE 9.2 mph - N/A   Overcast
7:55 AM 71.6 °F - 68.0 °F 88% 30.16 in 7.0 mi SSE 9.2 mph - N/A   Overcast
8:15 AM 71.6 °F - 68.0 °F 88% 30.17 in 7.0 mi SSE 9.2 mph - N/A   Overcast
8:35 AM 71.6 °F - 68.0 °F 88% 30.17 in 7.0 mi SSE 9.2 mph - N/A   Mostly Cloudy
8:55 AM 71.6 °F - 68.0 °F 88% 30.18 in 7.0 mi SSE 9.2 mph - N/A   Mostly Cloudy
9:15 AM 73.4 °F - 68.0 °F 83% 30.18 in 7.0 mi SSE 10.4 mph - N/A   Mostly Cloudy
9:55 AM 75.2 °F - 68.0 °F 78% 30.18 in 10.0 mi South 13.8 mph - N/A   Overcast
10:15 AM 75.2 °F - 68.0 °F 78% 30.19 in 10.0 mi South 10.4 mph - N/A   Mostly Cloudy
10:35 AM 77.0 °F - 68.0 °F 74% 30.19 in 10.0 mi South 11.5 mph - N/A   Mostly Cloudy
10:55 AM 77.0 °F - 66.2 °F 69% 30.19 in 10.0 mi South 10.4 mph - N/A   Scattered Clouds
11:15 AM 77.0 °F - 64.4 °F 65% 30.19 in 10.0 mi South 13.8 mph - N/A   Scattered Clouds
11:35 AM 80.6 °F 82.3 °F 64.4 °F 58% 30.19 in 10.0 mi South 13.8 mph - N/A   Scattered Clouds
11:55 AM 78.8 °F - 64.4 °F 61% 30.18 in 10.0 mi South 12.7 mph - N/A   Mostly Cloudy
12:15 PM 80.6 °F 82.3 °F 64.4 °F 58% 30.18 in 10.0 mi South 12.7 mph - N/A   Mostly Cloudy
12:55 PM 80.6 °F 82.3 °F 64.4 °F 58% 30.17 in 10.0 mi South 9.2 mph - N/A   Mostly Cloudy
1:55 PM 82.4 °F 83.9 °F 64.4 °F 54% 30.13 in 10.0 mi SSE 9.2 mph - N/A   Mostly Cloudy
2:15 PM 84.2 °F 85.6 °F 64.4 °F 51% 30.13 in 10.0 mi SSW 5.8 mph - N/A   Scattered Clouds
2:35 PM 84.2 °F 85.6 °F 64.4 °F 51% 30.12 in 10.0 mi SE 12.7 mph - N/A   Scattered Clouds
3:15 PM 84.2 °F 85.6 °F 64.4 °F 51% 30.11 in 10.0 mi SSE 12.7 mph 17.3 mph N/A   Scattered Clouds
3:35 PM 86.0 °F 87.3 °F 64.4 °F 48% 30.10 in 10.0 mi SE 13.8 mph - N/A   Mostly Cloudy
3:55 PM 86.0 °F 87.3 °F 64.4 °F 48% 30.10 in 10.0 mi SE 13.8 mph 19.6 mph N/A   Mostly Cloudy
4:15 PM 84.2 °F 85.0 °F 62.6 °F 48% 30.10 in 10.0 mi SE 12.7 mph - N/A   Scattered Clouds
4:35 PM 86.0 °F 86.6 °F 62.6 °F 45% 30.10 in 10.0 mi SSE 12.7 mph 19.6 mph N/A   Clear
4:55 PM 86.0 °F 86.6 °F 62.6 °F 45% 30.10 in 10.0 mi SSE 13.8 mph - N/A   Scattered Clouds
5:15 PM 86.0 °F 86.6 °F 62.6 °F 45% 30.10 in 10.0 mi SSE 15.0 mph - N/A   Scattered Clouds
5:55 PM 84.2 °F 85.0 °F 62.6 °F 48% 30.10 in 10.0 mi SE 12.7 mph - N/A   Scattered Clouds
6:15 PM 82.4 °F 83.4 °F 62.6 °F 51% 30.09 in 10.0 mi SE 11.5 mph - N/A   Scattered Clouds
6:35 PM 82.4 °F 83.4 °F 62.6 °F 51% 30.09 in 10.0 mi SE 10.4 mph - N/A   Clear
6:55 PM 80.6 °F 82.3 °F 64.4 °F 58% 30.08 in 10.0 mi SE 10.4 mph - N/A   Clear
7:15 PM 78.8 °F - 64.4 °F 61% 30.08 in 10.0 mi ESE 9.2 mph - N/A   Clear
7:35 PM 78.8 °F - 64.4 °F 61% 30.09 in 10.0 mi ESE 6.9 mph - N/A   Clear
8:15 PM 77.0 °F - 64.4 °F 65% 30.10 in 10.0 mi ESE 8.1 mph - N/A   Clear
8:35 PM 77.0 °F - 64.4 °F 65% 30.10 in 10.0 mi ESE 8.1 mph - N/A   Clear
9:15 PM 75.2 °F - 64.4 °F 69% 30.10 in 10.0 mi ESE 8.1 mph - N/A   Clear
9:35 PM 75.2 °F - 64.4 °F 69% 30.10 in 10.0 mi ESE 8.1 mph - N/A   Clear
9:55 PM 77.0 °F - 64.4 °F 65% 30.10 in 10.0 mi ESE 11.5 mph - N/A   Clear
10:15 PM 75.2 °F - 64.4 °F 69% 30.11 in 10.0 mi ESE 11.5 mph - N/A   Clear
10:35 PM 75.2 °F - 64.4 °F 69% 30.10 in 10.0 mi ESE 11.5 mph - N/A   Clear
11:15 PM 73.4 °F - 64.4 °F 73% 30.10 in 10.0 mi ESE 11.5 mph - N/A   Clear
11:35 PM 73.4 °F - 64.4 °F 73% 30.10 in 10.0 mi ESE 12.7 mph - N/A   Clear
11:55 PM 73.4 °F - 64.4 °F 73% 30.10 in 10.0 mi ESE 12.7 mph - N/A   Clear